www.pogodaiklimat.ru
Время
и дата
09:54 30.12
10:22 30.12
10:49 30.12
10:54 30.12
11:49 30.12
11:54 30.12
12:12 30.12
12:25 30.12
12:38 30.12
12:51 30.12
12:54 30.12
13:22 30.12
13:54 30.12
14:54 30.12
15:54 30.12
16:54 30.12
17:54 30.12
18:54 30.12
19:54 30.12
20:54 30.12
21:54 30.12
22:54 30.12
23:54 30.12
00:54 31.12
01:54 31.12
02:54 31.12
03:54 31.12
04:54 31.12
05:54 31.12
06:54 31.12
07:54 31.12
08:33 31.12
08:43 31.12
08:54 31.12
09:07 31.12
09:54 31.12
10:54 31.12
11:31 31.12
11:46 31.12
11:54 31.12
12:54 31.12
13:54 31.12
14:24 31.12
14:47 31.12
14:54 31.12
15:34 31.12
15:54 31.12
16:54 31.12
Ветер
(напр.,м/с)
Видим. Явления Облачность Т
(С)
Тd
(С)
f
(%)
Тe
(С)
Тes
(С)
Комфортность P
(гПа)
Po
(гПа)
Тmin
(С)
Tmax
(С)
R
(мм)
R24
(мм)
S
(см)
штиль 0 200 м туман ?/? +11.7 +11.1 96 +11 +11 1014.2 1002.0
штиль 0 200 м туман ?/? +11.7 +11.1 96 +11 +11 1002.0
Ю 1 400 м туман ?/? +12.0 +11.0 94 +11 +11 1001.7
ЮВ 1 400 м туман ?/? +12.2 +11.7 97 +11 +11 1013.6 1001.7
Ю 1 800 м туман ?/? +13.0 +12.0 94 +12 +12 1000.7
нст 1 1 км дымка 10/10 90 м +13.3 +11.7 90 +13 +13 1012.6 1000.7 +11.1 +13.3
Ю 1 4 км дымка 10/10 90 м +13.9 +12.2 89 +13 +13 1000.3
Ю 1 6 км дымка 8/8 90 м +14.4 +12.2 87 +13 +15 1000.0
нст 1 10 км дымка 8/8 120 м +14.4 +12.2 87 +14 +15 1000.0
Ю 1 13 км 8/8 м +16.0 +13.0 82 +16 +17 1000.0
Ю 1 16 км 8/8 м +16.1 +12.8 81 +16 +17 1011.8 999.7
ЮВ 1 16 км 5/5 210 м +16.7 +12.8 78 +16 +19 999.7
Ю 1 16 км 2/2 210 м +18.3 +13.3 73 +19 +23 1011.4 999.3
Ю 1 16 км 5/2 210 м
[Ci]
+19.4 +13.3 68 +21 +23 комфорт 1011.2 999.3
Ю 2 16 км 2/0 7500 м
[Ci]
+18.9 +12.2 65 +20 +21 1011.4 999.3
Ю 1 16 км 2/0 7500 м
[Ci]
+17.2 +12.8 75 +17 +18 1011.2 999.3
ЮЗ 1 16 км 2/0 7500 м
[Ci]
+16.1 +12.8 81 +16 +16 1011.5 999.3 +13.3 +19.4
Ю 1 16 км 2/0 7500 м
[Ci]
+15.0 +12.2 83 +14 +14 1011.6 999.7
ЮВ 1 16 км 2/0 7500 м
[Ci]
+14.4 +12.2 87 +14 +14 1010.9 999.0
Ю 2 16 км 8/0 2250 м
[Ac]
+15.0 +12.8 87 +14 +14 1010.5 998.3
Ю 1 16 км 10/0 3000 м
[Ac]
+16.1 +13.3 83 +16 +16 1010.8 998.7
Ю 3 16 км 10/0 3000 м
[Ac]
+17.2 +13.3 78 +16 +16 1010.8 998.7
Ю 2 16 км 10/0 3000 м
[Ac]
+17.2 +13.3 78 +17 +17 1010.4 998.7 +13.3 +17.2
Ю 1 16 км 10/2 1650 м
[Ac]
+17.2 +12.2 72 +17 +17 1010.3 998.3
Ю 1 16 км 8/5 1800 м
[Ac]
+16.7 +11.1 70 +16 +16 1010.4 998.3
Ю 1 16 км 10/5 1650 м
[Ac]
+16.7 +11.1 70 +17 +17 1010.0 998.0
Ю 2 16 км 10/2 1410 м
[Ac Ci]
+17.2 +11.7 70 +17 +17 1009.4 997.3
Ю 2 16 км 10/0 3300 м
[Ac]
+17.8 +13.3 75 +17 +17 1009.1 997.3
Ю 2 16 км 8/5 1200 м
[Ac]
+17.2 +13.9 81 +17 +17 1009.4 997.3 +16.1 +17.8
Ю 2 16 км 2/2 1410 м
[Ac]
+17.8 +15.0 84 +17 +17 1009.1 997.3
Ю 2 11 км 8/2 1410 м
[Ac Ci]
+17.8 +15.6 87 +18 +18 1009.7 997.7
Ю 2 11 км 8/8 240 м +18.9 +16.1 84 +20 +20 998.0
Ю 2
{4}
10 км дымка 8/8 240 м +18.9 +16.7 87 +20 +20 998.0
ЮЗ 3 10 км дымка 10/10 240 м +18.9 +16.7 87 +20 +20 1010.0 998.0
ЮЗ 2
{5}
3 км дымка 10/10 180 м +18.9 +17.2 90 +20 +20 998.3
Ю 2
{4}
3 км дымка 10/10 180 м +20.0 +18.3 90 +23 +23 комфорт 1010.1 998.3
ЮЗ 3 8 км дымка 10/10 210 м +20.6 +17.8 84 +24 +24 комфорт 1009.9 998.0
ЮЗ 3
{5}
11 км 8/8 270 м +21.1 +17.8 81 +25 +25 комфорт 997.7
ЮЗ 4
{5}
13 км 10/10 300 м +21.1 +17.2 78 +25 +25 комфорт 997.3
ЮЗ 3
{5}
16 км 10/10 330 м +21.1 +17.2 78 +25 +25 комфорт 1009.1 997.3 +17.2 +21.1
ЮЗ 3
{5}
16 км 10/10 300 м +20.6 +17.8 84 +24 +24 комфорт 1008.1 996.3
Ю 3 10 км дымка 10/10 270 м +20.6 +17.8 84 +24 +24 комфорт 1007.5 995.7
ЮЗ 2 10 км дымка 10/10 м +21.1 +17.8 81 +25 +25 комфорт 995.7
Ю 2 13 км 8/8 300 м +22.2 +17.8 76 +27 +27 душно 995.7
ЮЗ 2 13 км 8/8 300 м +22.2 +17.8 76 +27 +28 душно 1007.4 995.7
ЮЗ 2 16 км 8/8 510 м
[Ci]
+22.2 +17.8 76 +27 +27 душно 996.0
ЮЗ 1 16 км 8/8 510 м
[Ci]
+22.2 +17.8 76 +27 +27 душно 1007.6 996.0
ЮЗ 1 16 км 8/8 900 м
[Ci]
+21.7 +17.8 78 +26 +26 душно 1007.8 996.0
Местоположение метеостанции Memphis International Airport: широта 35.0611 долгота -89.9850 высота над уровнем моря 101 м.
В архиве по умолчанию представлена погода в Мемфисе за последние 1-2 суток. Обновление информации о фактической погоде в базе происходит ежечасно! Архивные данные за месяц целиком и за предыдущие месяцы Вы можете получить, выбрав интересующий диапазон дат из раскрывающегося списка и нажав кнопку "Ввод!".
Внимание! Архив погоды МЕТАР в базе сайта по станциям, не включенным в климатический монитор, хранится не более 60 дней. Нет смысла пытаться выбрать более раннюю дату.
*Определитесь, кто Вы:
Внимание! Время в таблицах - местное (без учета летнего времени). Для получения всемирного времени необходимо вычесть поправку, которая равна -6 ч.
Смотрите также архив погоды в соседних городах и на ближайших метеорологических станциях:
Партнеры нашего сайта:      
Пояснения к столбцам:
  • Ветер - указаны скорость ветра в м/с - средняя за 10 мин, порывы в срок и между сроками (в фигурных скобках) и направление, откуда дует ветер: С - северный,
  • СВ - северо-восточный, В - восточный, ЮВ - юго-восточный, Ю - южный, ЮЗ - юго-западный, З - западный, СЗ - северо-западный.
  • Видимость - горизонтальная дальность видимости в метрах или километрах. При видимости от 1 до 10 км при отсутствии осадков обычно наблюдается дымка, при ухудшении видимости до 1 км и менее - туман. В сухую погоду видимость может ухудшаться дымом, пылью или мглою.
  • Явления - указаны атмосферные явления, наблюдавшиеся в срок или в последний час перед сроком; фигурными скобками обозначены явления, наблюдавшиеся между сроками (за 1-3 часа до срока); квадратными скобками обозначены град или гололедные отложения с указанием их диаметра в мм.
  • Облачность - указаны через наклонную черту общая и нижняя облачность в баллах и высота нижней границы облаков в метрах; квадратными скобками обозначены формы облаков: Ci - перистые, Cs - перисто-слоистые, Cc - перисто-кучевые, Ac - высококучевые, As - высокослоистые, Sc - слоисто-кучевые, Ns - слоисто-дождевые, Cu - кучевые, Cb - кучево-дождевые. Подробнее классификацию облаков см. в Атласе облаков (PDF).
  • T - Температура воздуха - температура, измеренная на высоте 2 м над землей.
  • Td - Температура точки росы - температура, при понижении до которой содержащийся в воздухе водяной пар достигнет насыщения.
  • f - Относительная влажность воздуха - влажноcть воздуха, измеренная на высоте 2 м над землей.
  • Te - Эффективная температура - температура, которую ощущает одетый по сезону человек в тени. Характеристика душности погоды. При расчете учитывается влияние влажности воздуха и скорости ветра на теплоощущения человека.
  • Tes - Эффективная температура на солнце - температура, которую ощущает человек, с поправкой на солнечный нагрев. Характеристика знойности погоды. Зависит от высоты солнца над горизонтом, облачности и скорости ветра. Ночью, в пасмурную погоду, а также при ветре 12 м/с и более поправка равна нулю.
  • P - Атмосферное давление - приведенное к уровню моря атмосферное давление.
  • Po - Атмосферное давление - измеренное на уровне метеостанции атмосферное давление.
  • Tmin - Минимальная температура - минимум температуры воздуха на высоте 2 м над землей.
  • Tmax - Максимальная температура - максимум температуры воздуха на высоте 2 м над землей.
  • R - Количество осадков - Количество выпавших осадков за период времени, мм. При наведении курсора мыши на число - период времени, за который выпало указанное количество осадков.
  • R24 - Количество осадков - Количество выпавших осадков за 24 часа, мм.
  • S - Снежный покров - Высота снежного покрова, см. При наведении курсора мыши на число - состояние снежного покрова и степень покрытия местности в баллах.